Flag Weather past 2 weeks in Wipperfürth, North Rhine-Westphalia, Germany

Now
43 °F

Broken clouds.


Feels Like: 37 °F
Forecast: 38 / 47 °F
Wind: 10 mph from Southeast

Location: Koeln / Bonn

Current Time: Nov 27, 2014 at 9:23:15 AM

Latest Report: Nov 27, 2014 at 8:50 AM


Visibility: N/A

Pressure: 29.83 "Hg

Humidity: 76%

Dew point: 36 °F

Location of WipperfürthLocation

Historic Weather in Wipperfürth — Graph

°F

Wipperfürth temperature yesterday

Maximum temperature yesterday: 43 °F (at 12:20 AM)
Minimum temperature yesterday: 37 °F (at 7:50 AM)
Average temperature yesterday: 41 °F

Past Weeks' High & Low Weather Summary

 TemperatureHumidityPressure
High55 °F (Nov 13, 1:20 PM)100% (Nov 13, 2:20 AM)30.36 "Hg (Nov 13, 2:20 AM)
Low27 °F (Nov 25, 4:20 AM)50% (Nov 25, 3:20 PM)29.53 "Hg (Nov 16, 2:20 PM)
Average46 °F85%29.95 "Hg
* Reported Nov 12 8:20 AM — Nov 27 8:20 AM, Wipperfürth, Weather by CustomWeather, © 2014

Note: Actual official high and low records may vary slightly from our data, if they occured in-between our weather recording intervals... More about our weather records

Advertising

Wipperfürth weather history for previous 24 hours

 ConditionsComfort  
Time TempWeatherWind HumidityBarometerVisibility
8:20 AM
Nov 27
43 °FBroken clouds.8 mph76%29.83 "HgN/A
7:50 AM43 °FPartly cloudy.7 mph76%29.83 "HgN/A
7:20 AM43 °FPassing clouds.7 mph76%29.83 "HgN/A
6:50 AM43 °FPassing clouds.6 mph76%29.83 "HgN/A
6:20 AM43 °FPartly cloudy.7 mph76%29.83 "HgN/A
5:50 AM43 °FPartly cloudy.7 mph76%29.83 "HgN/A
5:20 AM43 °FPartly cloudy.8 mph76%29.83 "HgN/A
4:50 AM43 °FPartly cloudy.10 mph76%29.83 "HgN/A
4:20 AM41 °FPartly cloudy.8 mph81%29.86 "HgN/A
3:50 AM41 °FPartly cloudy.8 mph81%29.86 "HgN/A
3:20 AM41 °FPassing clouds.8 mph81%29.86 "HgN/A
2:50 AM41 °FLight rain. Passing clouds.8 mph81%29.86 "HgN/A
2:20 AM41 °FPassing clouds.8 mph87%29.89 "HgN/A
1:50 AM41 °FPassing clouds.9 mph81%29.89 "HgN/A
1:20 AM41 °FPassing clouds.8 mph87%29.89 "HgN/A
12:50 AM41 °FPassing clouds.8 mph87%29.89 "HgN/A
12:20 AM41 °FPassing clouds.8 mph87%29.92 "HgN/A
11:50 PM
Nov 26
41 °FPassing clouds.8 mph87%29.92 "HgN/A
11:20 PM41 °FPassing clouds.8 mph81%29.92 "HgN/A
10:50 PM41 °FPassing clouds.8 mph81%29.92 "HgN/A
10:20 PM41 °FLight rain. Passing clouds.9 mph81%29.92 "HgN/A
9:50 PM41 °FPassing clouds.8 mph87%29.95 "HgN/A
9:20 PM41 °FPassing clouds.8 mph87%29.95 "HgN/A
8:50 PM41 °FLight rain. Passing clouds.9 mph87%29.95 "HgN/A
8:20 PM41 °FLight rain. Passing clouds.12 mph81%29.95 "HgN/A
7:50 PM41 °FPassing clouds.10 mph81%29.95 "HgN/A
7:20 PM41 °FPassing clouds.10 mph81%29.95 "HgN/A
6:50 PM41 °FLight rain. Passing clouds.9 mph81%29.95 "HgN/A
6:20 PM41 °FLight rain. Passing clouds.10 mph81%29.95 "HgN/A
5:50 PM41 °FPassing clouds.12 mph81%29.95 "HgN/A
5:20 PM41 °FPassing clouds.9 mph81%29.95 "HgN/A
4:50 PM39 °FPartly cloudy.8 mph87%29.95 "Hg6 mi
4:20 PM39 °FBroken clouds.9 mph93%29.95 "Hg6 mi
3:50 PM41 °FLight rain. Broken clouds.8 mph87%29.95 "Hg5 mi
3:20 PM41 °FLight rain. Broken clouds.8 mph87%29.95 "Hg6 mi
2:50 PM39 °FLight rain. Broken clouds.10 mph93%29.95 "Hg6 mi
2:20 PM41 °FRain. More clouds than sun.12 mph81%29.98 "Hg4 mi
1:50 PM43 °FLight rain. More clouds than sun.13 mph71%29.98 "HgN/A
1:20 PM43 °FSunny.14 mph71%29.98 "Hg10 mi
12:50 PM43 °FSunny.13 mph71%30.01 "Hg10 mi
12:20 PM43 °FSunny.14 mph71%30.01 "Hg10 mi
11:50 AM43 °FPartly sunny.14 mph71%30.01 "HgN/A
11:20 AM41 °FPartly sunny.12 mph76%30.01 "HgN/A
10:20 AM41 °FBroken clouds.12 mph76%30.04 "HgN/A
9:50 AM41 °FBroken clouds.13 mph70%30.04 "HgN/A
9:20 AM39 °FPartly sunny.12 mph75%30.01 "HgN/A
Weather by CustomWeather, © 2014

See weather overviewHow to use our weather pages